Current Version              Previous Version:    01  02  03  04  05  06  07  08  09  10  11  12  13  14  15  16  17  18  19  20  21  22  23  24  25  26  27  28  29  30  
   31  32  33  34  35  36  37  38  39  40  41  42  43  44  45  46  47  48  49  50  51  52  53  54  55  56  57  58  59  60  

[Printable]
837
ASUS44 KFWD 250115
RWRTX
NORTH TEXAS HOURLY WEATHER ROUNDUP
NATIONAL WEATHER SERVICE FORT WORTH TX
800 PM CDT THU APR 24 2014

NOTE: "FAIR" INDICATES FEW OR NO CLOUDS BELOW 12,000 FEET WITH NO
SIGNIFICANT WEATHER AND/OR OBSTRUCTIONS TO VISIBILITY.

TXZ118-119-250200-
DALLAS/FORT WORTH METROPLEX

CITY           SKY/WX    TMP DP  RH WIND       PRES   REMARKS
DFW AIRPORT    PTCLDY    76  46  34 N10       29.86R
DALLAS LOVE    PTCLDY    77  43  29 N12       29.86R
FTW MEACHAM    CLEAR     76  45  33 NW8       29.87R
DAL-EXECUTIVE  CLEAR     75  44  33 NW8       29.86R
FTW-ALLIANCE   PTCLDY    72  44  36 NW7       29.87R
FTW-NAS-JRB    CLEAR     77  43  29 NW14      29.92R
FTW-SPINKS     CLEAR     75  41  30 NW8       29.89R
ARLINGTON      CLEAR     76  42  29 NW10      29.86R
GRAND PRAIRIE  CLEAR     75  43  31 NW10      29.86R
ADDISON        CLEAR     75  43  31 N9G16     29.87
MESQUITE       CLEAR     72  46  40 NW5       29.86
LANCASTER      CLEAR     76  42  29 NW8       29.87R
$$

TXZ091>094-102>105-117-120-121-131>134-250200-
NORTH CENTRAL TEXAS

CITY           SKY/WX    TMP DP  RH WIND       PRES   REMARKS
SHRMAN/DENISON CLEAR     69  44  41 NW6       29.89R
GAINESVILLE    CLEAR     68  46  44 NW7       29.91R
BOWIE          CLEAR     71  41  34 N5        29.90R
BRIDGEPORT     CLEAR     73  42  32 N6        29.90R
DECATUR        CLEAR     72  41  33 NW5       29.90R
DENTON         CLEAR     72  46  39 N8        29.87R
MCKINNEY       CLEAR     75  46  35 NW9       29.86R
GREENVILLE     CLEAR     72  46  40 NW6       29.86R
ROCKWALL       CLEAR     75  48  38 NW9       29.85R
TERRELL        CLEAR     75  47  36 NW6       29.86R
WAXAHACHIE     CLEAR     74  42  32 NW7       29.87R
CLEBURNE       CLEAR     73  45  35 NW7       29.90R
GRANBURY       CLEAR     76  42  29 NW5       29.90R
$$

TXZ083>090-098>101-113>116-127>130-139>142-154-155-250200-
WESTERN NORTH TEXAS

CITY           SKY/WX    TMP DP  RH WIND       PRES   REMARKS
WICHITA FALLS  PTCLDY    70  43  37 N3        29.89R
WF-KICKAPOO    CLEAR     72  38  28 N9        29.91R
VERNON         PTCLDY    74  37  25 N5        29.91R
ABILENE        CLEAR     77  30  17 N7        29.93R
ABILENE-DYESS  CLEAR     77  33  19 NE6       29.92R
BRECKENRIDGE   CLEAR     77  33  20 N8        29.91R
GRAHAM         CLEAR     74  37  26 NW6       29.89R
MINERAL WELLS  CLEAR     74  41  30 N8        29.88R
STEPHENVILLE   CLEAR     76  37  24 N7        29.93R
COMANCHE       CLEAR     77  33  20 N7        29.91R
BROWNWOOD      CLEAR     77  32  19 N6        29.92R
COLEMAN        CLEAR     75  32  20 N7        29.93R
BRADY          CLEAR     77  36  22 N5        29.92R
$$

TXZ143>147-156>162-174-175-250200-
CENTRAL TEXAS

CITY           SKY/WX    TMP DP  RH WIND       PRES   REMARKS
WACO           CLEAR     75  46  35 N6        29.86R
WACO-TSTC      CLEAR     72  48  43 NW7       29.86R
WACO-MCGREGOR  CLEAR     73  45  35 N6        29.87R
HILLSBORO      CLEAR     74  44  34 N7        29.88R
CORSICANA      CLEAR     76  46  34 NW8       29.86R
MEXIA          CLEAR     75  51  43 CALM      29.85R
HEARNE         MOCLDY    81  67  61 CALM      29.84R
CAMERON        CLEAR     79  51  37 CALM      29.84R
TEMPLE         CLEAR     79  39  24 N7        29.89R
KILLEEN        CLEAR     61  43  51 N6        29.87R
KILLEEN-SKYLRK CLEAR     79  30  17 N3        29.86R
FORT HOOD      CLEAR     81  40  23 NW6       29.88R
GATESVILLE     CLEAR     79  39  24 CALM      29.89R
HAMILTON       CLEAR     76  38  25 NW7       29.90R
LAMPASAS       CLEAR     78  41  26 N3        29.88R
$$

TXZ095>097-106>112-122>126-135>138-148>153-164>167-250200-
EAST TEXAS

CITY           SKY/WX    TMP DP  RH WIND       PRES   REMARKS
PARIS          CLEAR     72  46  40 NW6       29.85R
SULPHUR SPRNGS CLEAR     73  51  45 NW9       29.87R
CLARKSVILLE    CLEAR     74  48  39 CALM      29.83R
MOUNT PLEASANT CLEAR     75  49  40 NW9       29.85R
GILMER         CLEAR     75  54  46 W6        29.85R
MINEOLA        CLEAR     77  50  38 W3        29.85R
TYLER          CLEAR     75  53  46 NW6       29.84R
LONGVIEW       MOCLDY    76  63  64 NW10      29.81R
MARSHALL       MOCLDY    76  65  68 CALM      29.83R
ATHENS         CLEAR     75  54  46 N6        29.83R
PALESTINE      CLEAR     78  50  37 NW3       29.86R
JACKSONVILLE   PTCLDY    74  64  70 SW3       29.86R
HENDERSON      CLOUDY    76  63  62 N5        29.84R
NACOGDOCHES    CLEAR     73  64  73 S5        29.84R
LUFKIN         PTCLDY    77  67  71 SE3       29.83R
$$

SUPPLEMENTAL OBSERVATIONS (CENTRAL)

CITY           SKY/WX    TMP DP  RH WIND       PRES   REMARKS
LAKE TEXOMA      N/A     72  41  33 NW7         N/A
CADDO GRASSLND   N/A     72  43  35 N5G13       N/A
PAT MAYSE LAKE   N/A     72  46  40 W8          N/A
GREENVILLE       N/A     72  46  40 NW6         N/A
CEDAR HILL       N/A     75  43  31 NW3G12      N/A
ATHENS           N/A     73  54  49 N1          N/A
PALESTINE        N/A     75  66  73 CALM        N/A
LAKE LIMESTONE   N/A     79  46  31 NW5         N/A
MCGREGOR         N/A     75  43  31 N2          N/A
TEMPLE           N/A     79  43  27 N3          N/A
$$

SUPPLEMENTAL OBSERVATIONS (WEST)

CITY           SKY/WX    TMP DP  RH WIND       PRES   REMARKS
MILLERS CREEK    N/A     73  34  23 NE5G15      N/A
POSSUM KINGDOM   N/A     73  36  25 NW6G15      N/A
LBJ GRASSLAND    N/A     73  39  29 N7          N/A
GRANBURY         N/A     75  41  29 N6G15       N/A
COMANCHE         N/A     73  36  25 N6G14       N/A
HAMBY            N/A     75  30  19 N7          N/A
IVIE RESERVOIR   N/A     79  34  19 N8          N/A
COLORADO BEND    N/A     79  36  21 N1          N/A
$$

SUPPLEMENTAL OBSERVATIONS (EAST)

CITY           SKY/WX    TMP DP  RH WIND       PRES   REMARKS
CLARKSVILLE      N/A     72  48  43 NW5G15      N/A
TEXARKANA        N/A     75  52  43 W6G17       N/A
LINDEN           N/A     75  52  43 NW7         N/A
CADDO LAKE       N/A     72  64  78 CALM        N/A
GILMER           N/A     75  50  41 W7          N/A
HENDERSON        N/A     77  64  65 N8          N/A
LUFKIN           N/A     73  68  83 MISG        N/A
N SABINE NF      N/A     72  66  83 MISG        N/A
S SABINE NF      N/A     72  66  83 SW2G12      N/A
$$

SUPPLEMENTAL OBSERVATIONS ARE A COLLECTION OF AUTOMATED INSTRUMENTS
THAT ARE MAINTAINED BY A VARIETY OF FEDERAL AND STATE AGENCIES.
CERTAIN ELEMENTS...SUCH AS HUMIDITY VALUES AND SUSTAINED WIND
SPEEDS...MAY BE APPROXIMATED.